Home > Weather > Konstanz > Past weeks

Flag for Germany Past Weather in Konstanz, Baden-Württemberg, Germany — Yesterday and Last 2 Weeks

Now
72 °F

Sunny.


Feels Like: 74 °F
Forecast: 57 / 83 °F
Wind: 2 mph from North

Location: Friedrichshafen Airport

Current Time: Jul 29, 2016 at 10:00:19 PM

Latest Report: Jul 29, 2016 at 8:50 PM


Visibility: 10 mi

Pressure: 29.98 "Hg

Humidity: 73%

Dew Point: 63 °F

Location of KonstanzLocation

Past Weather in Konstanz — Graph

°F

Konstanz Temperature Yesterday

Maximum temperature yesterday: 79 °F (at 3:50 PM)
Minimum temperature yesterday: 57 °F (at 5:50 AM)
Average temperature yesterday: 68 °F

High & Low Weather Summary for the Past Weeks

 TemperatureHumidityPressure
High90 °F (Jul 20, 6:20 PM)100% (Jul 14, 11:20 PM)30.36 "Hg (Jul 14, 11:20 PM)
Low46 °F (Jul 16, 3:20 AM)35% (Jul 20, 3:20 PM)29.95 "Hg (Jul 22, 12:50 PM)
Average68 °F77%30.13 "Hg
* Reported Jul 14 8:20 PM — Jul 29 8:50 PM, Konstanz, Weather by CustomWeather, © 2016

Note: Actual official high and low records may vary slightly from our data, if they occured in-between our weather recording intervals... More about our weather records

Advertising

Konstanz Weather History for the Previous 24 Hours

Scroll right to see more
 ConditionsComfort  
Time TempWeatherWind HumidityBarometerVisibility
8:50 PM
Fri, Jul 29
72 °FSunny.2 mph73%29.98 "Hg10 mi
8:20 PM75 °FSunny.3 mph61%29.98 "Hg10 mi
7:50 PM77 °FPassing clouds.3 mph54%29.98 "HgN/A
7:20 PM79 °FPassing clouds.5 mph54%29.98 "HgN/A
6:50 PM79 °FPassing clouds.6 mph51%29.98 "HgN/A
6:20 PM79 °FPassing clouds.5 mph51%29.98 "HgN/A
5:50 PM81 °FPassing clouds.6 mph48%29.98 "HgN/A
5:20 PM79 °FPassing clouds.7 mph51%29.98 "HgN/A
4:50 PM81 °FPassing clouds.6 mph48%30.01 "HgN/A
4:20 PM79 °FPassing clouds.8 mph51%30.01 "HgN/A
3:50 PM79 °FPassing clouds.6 mph51%30.01 "HgN/A
3:20 PM79 °FPassing clouds.6 mph51%30.01 "HgN/A
2:50 PM79 °FPassing clouds.7 mph58%30.01 "HgN/A
2:20 PM77 °FPassing clouds.8 mph54%30.01 "HgN/A
1:50 PM77 °FPassing clouds.6 mph54%30.04 "HgN/A
1:20 PM75 °FPassing clouds.7 mph61%30.04 "HgN/A
12:50 PM75 °FPassing clouds.7 mph61%30.04 "HgN/A
12:20 PM75 °FPassing clouds.8 mph57%30.04 "HgN/A
11:50 AM73 °FPassing clouds.6 mph65%30.04 "HgN/A
11:20 AM73 °FPassing clouds.6 mph65%30.07 "HgN/A
10:50 AM72 °FPassing clouds.9 mph65%30.07 "HgN/A
10:20 AM70 °FPassing clouds.9 mph78%30.07 "HgN/A
9:50 AM70 °FPartly sunny.8 mph73%30.07 "HgN/A
9:20 AM68 °FBroken clouds.3 mph83%30.07 "HgN/A
8:50 AM66 °FMostly cloudy.2 mph83%30.07 "HgN/A
8:20 AM66 °FMostly cloudy.No wind83%30.07 "HgN/A
7:50 AM64 °FMostly cloudy.No wind88%30.07 "HgN/A
7:20 AM64 °FMostly cloudy.2 mph88%30.07 "HgN/A
6:50 AM63 °FPassing clouds.No wind94%30.07 "HgN/A
6:20 AM64 °FMostly cloudy.No wind88%30.07 "HgN/A
5:50 AM64 °FMostly cloudy.1 mph88%30.07 "HgN/A
5:20 AM64 °FMostly cloudy.No wind88%30.07 "HgN/A
4:50 AM64 °FMostly cloudy.No wind88%30.07 "HgN/A
4:20 AM64 °FOvercast.1 mph88%30.07 "HgN/A
3:50 AM64 °FMostly cloudy.1 mph88%30.07 "HgN/A
3:20 AM64 °FMostly cloudy.3 mph88%30.07 "HgN/A
2:50 AM64 °FPartly cloudy.3 mph88%30.07 "HgN/A
2:20 AM64 °FMostly cloudy.2 mph88%30.07 "HgN/A
1:50 AM64 °FPartly cloudy.No wind88%30.07 "HgN/A
1:20 AM64 °FPassing clouds.1 mph83%30.07 "HgN/A
12:50 AM66 °FPartly cloudy.1 mph78%30.07 "HgN/A
12:20 AM68 °FPassing clouds.3 mph73%30.07 "HgN/A
11:50 PM
Thu, Jul 28
70 °FPartly cloudy.5 mph64%30.07 "HgN/A
11:20 PM70 °FPassing clouds.5 mph69%30.07 "HgN/A
10:50 PM70 °FPartly cloudy.6 mph69%30.04 "HgN/A
10:20 PM70 °FPassing clouds.5 mph69%30.04 "HgN/A
Weather by CustomWeather, © 2016

See weather overviewHow to use our weather pages